DELTA 1 DEB, 7036

Orbit data source: Space-Track

DELTA 1 DEB, 7036 is space debris in SSO originally from a launch on Tue, 06 Nov 1973 UTC launched from the Air Force Western Test Range (AFWTR). Debris objects in space refer to the collection of defunct objects orbiting the Earth. Examples of debris include non-operational satellites, rocket bodies, and fragments generated from explosions, collisions, or faulty payload assembly.

Loading next visibility...
Identifier
7036, 1973-086AC
Orbit
SSO
Country
Flag of USUS
Related business
Manufacturer
Unknown
Mission
Spacecraft
Bus & Motor
Unknown
Mass
Unknown
Launch date (UTC)
1973-11-06 (53 years ago)
Launch vehicle
Unknown
Launch site
Air Force Western Test Range (AFWTR)
Object type
Payload
Rocket body
Debris
Shape & HBR
Unknown shape, 0.1 m
Radar Cross Section
Medium (>0.1 m² and <1 m²)

Expand to show TLE details & history
Last TLE update: 12 hours ago

TLE from 12 hours ago
0 DELTA 1 DEB
1  7036U 73086AC  26263.21347138  .00000537  00000-0  35056-2 0  9994
2  7036 101.6029 235.8230 0054648   9.6756   4.5778 12.56082762409070
Epoch: 2026-09-20T05:07Z
TLE epoch observation values (Epoch: 2026-09-20T05:07:23.927Z)
Latitude
13.97894°
Longitude
156.94713°
Altitude
1,398.432 km
Speed
7.181 km/s
True Right ascension
15h 31m 37s
True Declination
13° 54' 19"
Sunlit
Object was in daylight at epoch
Visualization orbit readout
Latitude
Unknown
Longitude
Unknown
Altitude
Unknown
Speed
Unknown
Apparent Right ascension
Unknown
Apparent Declination
Unknown
Sunlit
N/A
Visualization observer readout
Local Sidereal Time
09:46:53
Azimuth
Unknown
Elevation
Unknown
Doppler factor
Unknown
Orbital elements
Apogee altitude
1,479.392 km
Perigee altitude
1,393.979 km
Semi-major axis
7,814.822 km
Eccentricity
0.00546
Inclination
101.6029°
RAAN
235.823°
Arg. of periapsis
9.6756°
True anomaly
4.62812°
Mean anomaly
4.5778°
Eccentric anomaly
4.60293°
Mean motion
3.1417 °/min
Orbital period
114.59 mins
BSTAR
0.0035056
Loading maneuver chart data...
Computing Atmospheric mass density...
Loading historical data...
Loading historical data...
Loading historical data...
Loading historical data...
Loading historical data...
Loading historical data...
Loading historical data...

Documentation

Showing up to 5 results
|